Theta_e
345 354 360 358 357 357 356 356 356 355 355 355 354 354 354 356 355 354 354 355 357 356 355 355 355 355 354 354 354 356 355 354 354 353 353 354 349 348 347 353 348 343 346
348 354 360 360 357 357 356 356 356 356 356 355 354 354 355 355 355 356 355 356 357 355 355 355 355 355 355 355 355 354 354 353 353 353 352 352 354 349 345 348 349 345 347
348 353 355 359 358 356 356 355 356 356 355 355 354 354 354 354 354 354 355 356 355 355 356 356 355 355 354 354 355 355 354 354 355 354 354 347 347 353 348 349 349 348 347
347 347 353 359 358 356 355 357 356 356 355 354 354 354 354 354 354 354 355 355 354 355 355 355 354 353 352 352 353 354 354 354 354 354 348 348 344 356 352 350 350 348 347
343 348 352 359 358 357 355 356 356 355 354 354 355 355 355 355 355 355 356 356 354 353 354 354 354 352 350 350 352 354 355 354 353 348 341 345 350 353 353 352 351 350 349
341 349 358 359 358 358 355 356 356 355 354 354 354 355 356 355 356 357 357 357 355 352 352 354 355 351 351 352 353 354 354 354 351 333 334 349 350 355 354 354 354 352 350
346 350 355 359 359 358 356 356 356 355 354 355 356 355 356 355 355 356 357 357 353 352 353 354 352 348 347 349 351 352 351 350 337 319 329 346 347 351 356 355 355 353 352
346 349 352 358 359 358 357 357 356 355 355 355 354 354 354 353 352 354 355 354 350 350 350 351 350 348 347 348 349 350 350 349 336 324 338 343 347 350 354 352 354 355 354
344 345 347 351 355 358 358 357 356 356 355 355 353 353 354 353 353 354 355 350 347 345 346 348 349 349 347 348 348 348 349 349 337 331 326 346 353 354 351 352 352 351 351
341 342 345 347 349 350 351 358 357 356 355 355 355 356 355 354 352 352 351 348 346 344 343 345 350 349 349 349 348 348 347 348 325 320 338 343 351 352 350 350 349 349 348
340 340 340 343 344 346 347 352 356 355 342 337 337 341 342 345 338 343 347 347 347 344 345 347 349 349 349 349 347 346 351 335 324 322 334 351 352 349 347 346 346 347 347
336 338 338 340 339 343 346 347 346 342 339 334 335 338 339 342 337 339 343 351 348 348 348 345 347 345 337 327 324 332 334 333 324 323 326 351 350 345 340 341 343 344 345
328 335 337 340 340 340 344 347 344 339 334 336 338 339 338 342 337 333 330 329 324 335 321 323 320 318 318 319 319 318 320 323 322 323 328 348 347 342 338 340 341 342 343
332 335 337 339 340 342 345 343 341 335 331 334 336 339 338 339 332 329 328 321 321 321 319 318 317 317 320 319 318 318 317 317 320 322 333 346 345 344 343 341 339 339 340
334 337 336 342 342 344 344 344 340 337 332 335 332 335 338 334 330 330 325 324 321 322 319 318 317 317 317 318 316 316 317 318 319 321 321 343 343 344 345 340 338 338 338
338 339 342 345 346 345 347 346 343 337 333 336 337 341 336 334 330 326 324 323 322 321 320 318 317 316 315 315 315 315 315 316 317 318 320 322 344 343 345 343 342 340 338
340 345 343 347 349 345 342 339 341 336 338 338 336 334 333 332 327 326 322 321 323 321 321 319 318 316 314 315 312 315 316 316 318 318 319 321 323 343 345 344 345 343 340
345 343 342 347 342 340 338 337 338 335 335 335 334 333 336 332 329 326 324 323 324 321 319 318 316 314 313 312 312 312 312 314 316 318 319 320 323 330 341 343 342 340 340
344 343 340 338 339 337 336 337 338 333 333 330 325 332 331 331 326 325 323 323 325 319 317 317 315 313 312 311 312 310 310 311 314 317 317 319 322 323 325 339 341 340 340
345 343 341 339 338 338 340 336 336 333 330 327 327 324 333 329 329 324 322 322 320 317 317 316 313 313 312 311 314 311 308 311 313 312 315 318 319 319 322 321 324 326 333
343 342 342 340 340 338 336 333 334 331 331 329 330 328 332 330 327 324 323 321 319 316 315 312 313 310 309 311 307 307 307 310 309 312 315 318 316 318 319 319 323 324 326
338 340 339 341 341 339 338 337 338 336 334 332 330 331 330 327 326 325 322 320 318 313 311 311 309 308 308 308 304 303 299 303 308 312 314 315 314 316 319 320 321 322 323
323 324 326 341 342 341 340 336 338 338 336 332 327 325 327 327 326 323 322 319 315 312 310 309 309 308 305 307 308 308 302 298 304 309 310 313 314 315 317 317 319 321 322
323 325 328 342 340 342 339 336 332 329 326 324 321 325 321 322 324 321 318 315 314 311 310 311 312 308 307 304 309 312 310 309 302 298 308 310 313 312 312 311 314 318 320
328 333 336 331 340 342 339 335 332 328 324 322 322 320 319 323 321 318 318 315 312 311 311 310 309 308 307 306 307 309 308 308 309 305 301 302 308 308 308 308 312 317 317
327 327 335 332 339 339 337 336 334 328 323 321 321 320 318 317 317 318 318 313 312 311 310 309 309 308 308 309 309 310 308 305 303 304 303 302 299 303 307 309 307 314 319
Wind_Speed
7 10 15 15 14 12 11 10 9 8 7 7 8 8 8 8 8 9 9 8 7 8 9 9 9 10 10 10 10 9 9 9 9 9 9 8 4 4 5 5 7 9 10
15 10 15 14 14 12 11 10 9 7 6 6 6 6 6 6 6 6 7 7 7 7 8 8 9 9 10 10 9 9 9 11 11 10 9 8 7 3 2 6 12 9 9
14 11 12 13 13 12 10 9 7 6 5 5 5 4 5 5 5 5 5 5 6 6 7 8 8 9 9 10 10 10 9 11 13 12 11 4 5 8 5 6 10 10 9
15 9 9 13 12 12 10 8 7 6 4 3 3 3 4 3 3 4 4 4 5 6 6 6 7 8 9 9 9 10 11 12 12 14 5 8 9 13 10 9 10 10 8
14 13 11 14 12 11 10 7 6 6 4 3 2 2 3 3 3 4 4 5 6 8 8 8 8 8 7 7 7 8 10 12 13 10 9 1 6 4 10 9 11 11 7
16 15 16 16 13 12 11 10 7 6 4 2 0 1 2 3 2 2 2 3 4 5 6 6 7 8 7 8 8 6 8 11 13 6 4 6 5 12 10 12 11 13 10
14 12 14 18 15 14 12 11 8 6 5 3 2 3 2 4 3 3 1 1 1 4 4 5 4 4 7 8 8 9 11 12 8 4 5 4 6 13 11 12 11 11 10
16 12 11 17 16 15 13 12 10 9 7 4 3 4 5 7 7 6 6 6 2 3 3 3 5 7 10 8 9 10 13 14 9 4 2 4 7 8 9 7 8 9 7
15 14 11 11 14 16 13 11 10 9 6 2 4 7 8 9 7 7 9 8 6 8 5 5 7 8 11 12 10 11 14 21 7 3 5 3 12 10 10 10 9 6 6
15 15 14 12 11 9 8 14 13 8 4 2 3 9 12 11 9 9 11 8 8 7 7 7 9 10 12 14 12 13 16 21 5 4 2 6 10 11 11 11 10 7 5
13 15 13 13 12 10 9 11 9 12 9 2 6 14 16 9 7 9 9 9 10 8 9 8 10 11 13 12 14 15 14 4 4 2 3 12 13 13 12 10 9 8 6
15 14 12 12 12 13 10 8 8 8 3 4 6 7 9 12 11 8 6 11 9 7 8 9 8 9 7 4 4 7 3 5 4 4 3 12 12 12 11 10 9 8 7
6 8 10 15 9 12 7 8 5 3 3 3 5 9 7 9 2 3 3 2 2 5 2 5 6 4 7 4 4 5 5 4 4 4 5 15 14 13 12 12 10 8 7
7 8 7 7 7 7 11 9 6 5 4 4 5 9 8 6 2 4 3 4 4 3 5 4 4 6 7 7 6 6 7 5 4 3 1 10 12 14 14 12 12 11 9
6 7 7 8 6 5 5 10 8 6 7 5 6 10 10 3 3 4 3 4 3 3 3 4 5 5 6 7 7 7 9 9 9 5 3 13 17 16 13 14 13 13 11
7 6 8 8 7 6 4 5 8 7 8 6 5 7 2 3 4 4 2 2 3 2 3 3 5 4 4 4 7 7 8 7 9 7 5 5 17 17 16 15 16 14 13
7 8 8 8 8 7 6 4 3 7 8 8 5 7 7 5 4 4 2 1 1 2 3 4 4 4 4 5 6 6 8 9 10 11 7 6 7 14 19 17 9 9 9
8 8 8 7 8 7 5 4 4 5 5 5 4 3 5 5 3 4 3 1 1 1 2 2 1 3 3 4 4 5 4 7 11 12 8 6 7 2 8 9 10 9 11
9 8 6 7 6 6 5 3 4 6 4 4 3 4 6 6 2 3 3 1 2 1 2 1 2 2 3 4 5 3 4 5 8 11 11 10 8 6 2 8 8 10 8
9 7 7 6 6 5 3 1 4 3 1 2 2 4 6 5 5 5 2 2 1 2 2 2 2 3 2 3 5 6 4 5 6 6 9 8 5 2 4 3 4 3 7
7 7 8 6 2 1 1 1 2 4 3 4 3 3 6 5 5 4 2 3 1 2 2 3 2 3 3 4 3 4 4 9 6 5 5 4 2 5 5 2 3 4 4
23 18 12 5 5 4 3 3 3 3 3 4 4 5 5 6 3 3 5 4 3 3 3 3 2 2 2 3 2 3 4 6 3 4 6 7 8 5 7 7 7 5 5
25 11 20 15 8 6 4 2 2 3 3 4 3 3 2 3 5 3 6 4 4 4 3 0 1 2 2 3 2 2 3 2 7 1 6 5 7 7 6 7 7 6 6
12 10 20 15 6 4 2 3 1 1 1 2 2 3 2 4 5 6 6 4 5 3 0 1 1 1 1 3 3 2 3 2 1 6 2 4 4 6 5 5 4 5 5
7 3 5 25 3 4 5 2 2 3 1 1 3 6 8 7 8 6 4 6 2 0 1 3 2 1 1 2 3 3 2 3 4 5 7 2 3 3 3 4 5 4 5
12 11 11 8 10 8 5 4 5 4 4 4 5 5 4 3 3 5 5 2 2 3 2 1 1 1 3 4 3 3 3 3 2 2 2 2 2 4 4 3 4 4 5
Wind_Direction
130 138 131 127 121 116 112 105 97 90 79 74 70 66 60 56 54 49 47 39 34 36 30 28 24 21 18 13 9 5 358 348 338 342 346 345 339 353 3 28 103 82 81
133 139 132 131 129 125 120 116 109 101 95 85 77 70 65 58 56 48 40 30 24 30 28 20 18 14 8 4 1 357 345 333 326 333 337 322 294 276 334 78 103 96 83
131 139 136 136 133 131 127 122 118 112 100 91 82 73 65 56 46 43 39 23 23 20 18 16 13 7 2 358 352 347 340 330 323 332 330 282 249 210 204 128 113 107 100
137 138 134 138 138 136 132 130 129 120 107 93 71 50 53 46 36 28 23 22 16 15 13 13 12 4 357 351 351 341 333 330 328 333 310 273 251 192 195 166 134 121 113
143 134 147 145 146 146 144 144 145 136 127 104 62 20 12 1 13 17 4 12 17 13 6 1 1 358 358 349 341 333 325 323 322 333 326 171 62 142 196 191 146 135 137
145 145 153 153 155 156 159 158 161 150 146 163 243 333 334 319 308 304 342 11 10 19 5 353 357 353 341 334 332 325 312 307 314 337 10 82 110 168 191 196 166 146 136
138 147 153 157 162 164 167 164 161 169 172 195 225 256 268 261 246 223 184 252 359 26 344 348 340 308 311 311 314 318 312 305 312 29 332 162 161 168 189 191 157 149 152
139 149 158 160 166 170 172 169 170 184 188 198 225 255 255 241 221 197 194 207 201 246 263 288 298 303 304 302 301 304 302 299 310 8 234 163 167 170 146 148 136 147 167
148 149 161 169 175 178 174 173 182 188 175 197 267 258 247 249 241 218 214 202 209 245 255 278 282 282 284 288 294 300 301 299 306 314 253 168 174 174 160 137 125 126 126
154 160 170 173 176 170 175 179 189 163 137 45 319 317 300 266 240 234 235 222 228 254 280 291 293 289 289 297 305 294 288 287 318 343 136 166 153 157 148 143 135 125 99
165 168 177 173 179 171 173 192 159 130 133 110 42 10 344 293 261 242 236 230 246 257 290 299 287 294 293 298 301 309 307 271 296 324 200 170 166 161 153 141 128 116 106
167 184 174 173 181 178 177 131 139 142 358 356 44 33 305 285 257 223 239 215 253 287 301 329 321 330 351 313 320 328 296 286 284 274 184 188 174 163 154 142 132 123 114
184 143 159 162 170 167 154 138 145 139 96 60 119 186 259 293 352 78 71 36 349 49 360 19 359 345 331 334 328 331 316 288 262 267 306 178 178 170 164 165 155 152 145
188 152 145 145 119 108 131 145 152 155 152 186 204 198 223 257 73 42 36 21 14 360 25 6 343 341 324 322 331 327 317 314 303 297 215 178 194 192 188 179 169 168 171
151 159 166 133 139 142 121 149 154 169 182 187 178 217 218 175 81 61 27 31 344 33 16 354 343 329 323 341 349 348 339 330 319 301 270 232 205 210 200 195 188 185 189
172 140 138 141 154 144 124 96 155 170 185 170 203 215 140 99 96 90 16 321 31 27 351 352 326 307 355 3 345 330 322 313 303 302 297 284 236 218 205 201 205 198 204
133 126 121 129 109 95 95 102 60 130 143 156 158 158 168 145 148 154 189 48 72 360 360 338 332 17 4 340 317 326 320 322 323 312 296 290 292 240 204 207 228 217 217
105 98 67 88 107 106 99 99 100 113 121 139 136 126 96 106 162 185 157 116 257 342 346 347 28 338 321 305 308 297 337 333 326 320 315 317 315 269 210 221 227 221 219
121 101 86 90 123 125 111 82 112 118 131 145 162 100 153 171 213 158 146 161 52 13 348 57 320 330 305 313 298 348 323 312 313 311 307 309 307 297 117 207 223 227 221
108 127 120 77 85 85 96 231 99 70 283 240 305 145 180 211 204 157 134 78 94 25 20 1 358 352 321 312 319 313 298 286 289 290 285 292 293 60 83 106 83 66 27
122 103 76 97 138 86 286 228 227 159 243 290 284 240 222 216 157 142 130 154 167 119 70 13 45 347 322 327 343 326 305 282 291 292 312 325 16 40 49 41 61 37 353
4 57 7 284 195 208 221 237 157 163 177 218 230 244 223 172 135 202 170 204 133 104 30 54 28 326 314 341 317 308 334 320 357 340 11 354 14 27 41 26 45 16 10
93 89 293 269 209 209 236 339 27 36 4 6 345 45 65 137 207 231 196 135 136 120 129 265 29 49 322 313 322 280 331 317 333 323 348 10 7 31 24 9 22 13 359
93 188 210 249 233 188 169 18 9 131 333 354 46 44 333 4 4 46 96 106 96 91 350 141 89 336 291 281 300 233 243 210 283 313 6 355 7 10 23 357 352 358 352
131 209 31 333 265 139 133 156 93 67 145 353 3 3 19 9 41 40 75 104 111 259 49 95 345 296 219 229 234 263 228 223 216 232 300 339 336 359 10 352 352 338 336
165 157 191 256 229 185 159 218 194 159 98 41 16 43 1 2 349 35 35 7 326 39 54 323 272 262 262 260 251 240 234 239 221 228 259 320 284 314 320 306 338 322 332